�N����,����,�~����,�C��,���x,�C��,����,���ϕ���,�ő�u�ԕ���,�ő厞����,���˗�,�I�_���x,�n�����x,�ő啗���N��,DTYPE
"20/09/20","00:10",0.0,19.3,70.7,1009.7,350.9,0.7,2.6,328.8,0.00,13.9,23.5,"00:00:48",1
"20/09/20","00:20",0.0,19.2,71.0,1009.7,299.2,0.8,1.3,332.6,0.00,13.9,23.3,"00:19:28",1
"20/09/20","00:30",0.0,19.1,71.3,1009.5,300.5,1.0,2.1,331.1,0.00,13.8,23.3,"00:25:04",1
"20/09/20","00:40",0.0,19.1,70.9,1009.7,313.4,1.6,3.2,345.4,0.00,13.7,23.4,"00:35:20",1
"20/09/20","00:50",0.0,19.5,69.6,1010.2,330.6,2.1,3.6,326.1,0.00,13.8,23.5,"00:46:32",1
"20/09/20","01:00",0.0,19.8,68.6,1010.0,324.9,1.6,2.9,330.7,0.00,13.9,23.4,"00:54:24",1
"20/09/20","01:10",0.0,19.9,68.3,1009.3,334.9,1.0,2.5,325.0,0.00,13.9,23.3,"01:01:04",1
"20/09/20","01:20",0.0,19.8,68.2,1009.5,303.3,1.1,2.1,325.1,0.00,13.8,23.2,"01:16:32",1
"20/09/20","01:30",0.0,19.6,68.4,1010.0,301.8,0.7,1.4,328.0,0.00,13.7,23.3,"01:29:12",1
"20/09/20","01:40",0.0,19.6,69.2,1009.7,309.2,1.2,2.5,348.7,0.00,13.8,23.2,"01:35:44",1
"20/09/20","01:50",0.0,19.3,70.0,1009.7,321.2,1.0,2.0,341.0,0.00,13.7,23.3,"01:40:32",1
"20/09/20","02:00",0.0,19.0,71.0,1009.7,292.7,0.6,1.2,329.0,0.00,13.7,23.2,"01:57:12",1
"20/09/20","02:10",0.0,18.9,72.4,1010.0,319.6,0.7,1.4,334.3,0.00,13.9,23.2,"02:09:20",1
"20/09/20","02:20",0.0,19.0,73.1,1009.5,333.6,1.3,2.5,336.3,0.00,14.1,23.1,"02:11:12",1
"20/09/20","02:30",0.0,19.2,73.2,1009.3,331.7,1.2,2.6,326.8,0.00,14.3,23.0,"02:29:36",1
"20/09/20","02:40",0.0,19.2,73.1,1009.3,329.1,1.6,3.2,338.5,0.00,14.3,23.0,"02:33:52",1
"20/09/20","02:50",0.0,19.4,72.8,1009.5,334.2,1.6,3.7,337.2,0.00,14.4,23.1,"02:42:00",1
"20/09/20","03:00",0.0,19.1,73.5,1009.3,345.8,1.1,1.9,331.3,0.00,14.3,22.8,"02:56:40",1
"20/09/20","03:10",0.0,18.9,74.5,1009.5,327.1,1.8,4.3,327.4,0.00,14.3,22.9,"03:08:48",1
"20/09/20","03:20",0.0,19.0,74.6,1009.0,323.1,2.0,3.5,343.2,0.00,14.4,22.8,"03:11:52",1
"20/09/20","03:30",0.0,19.0,74.8,1009.0,331.5,1.3,2.1,341.9,0.00,14.5,22.8,"03:23:28",1
"20/09/20","03:40",0.0,18.8,75.1,1009.0,328.1,1.1,2.0,334.4,0.00,14.3,22.9,"03:30:08",1
"20/09/20","03:50",0.0,18.8,75.8,1009.0,318.1,1.2,1.9,314.3,0.00,14.5,22.8,"03:48:08",1
"20/09/20","04:00",0.0,18.6,76.3,1009.3,315.6,1.5,2.7,336.3,0.00,14.4,22.7,"03:55:52",1
"20/09/20","04:10",0.0,18.7,76.7,1009.7,76.8,0.6,1.2,331.1,0.00,14.6,22.7,"04:00:56",1
"20/09/20","04:20",0.0,18.6,77.1,1009.5,313.8,0.8,1.6,332.8,0.00,14.6,23.0,"04:16:16",1
"20/09/20","04:30",0.0,18.4,77.8,1009.7,323.5,1.3,1.9,331.6,0.00,14.5,22.7,"04:29:04",1
"20/09/20","04:40",0.0,18.3,78.4,1009.5,315.1,1.0,1.8,318.7,0.00,14.5,22.5,"04:38:32",1
"20/09/20","04:50",0.0,18.3,78.7,1009.5,316.3,1.1,1.9,332.7,0.00,14.6,22.5,"04:41:20",1
"20/09/20","05:00",0.0,18.4,78.7,1009.5,327.7,1.5,2.7,336.7,0.00,14.7,22.7,"04:58:16",1
"20/09/20","05:10",0.0,18.5,78.3,1009.3,324.2,1.7,2.6,325.2,0.00,14.7,22.7,"05:06:40",1
"20/09/20","05:20",0.0,18.6,78.2,1009.5,291.3,1.1,2.6,332.3,0.00,14.8,22.7,"05:10:32",1
"20/09/20","05:30",0.0,18.6,77.6,1009.7,303.1,2.0,4.7,336.3,0.00,14.7,22.5,"05:28:24",1
"20/09/20","05:40",0.0,18.8,76.7,1009.7,314.7,1.7,4.0,343.2,0.00,14.7,22.6,"05:39:28",1
"20/09/20","05:50",0.0,18.9,76.2,1009.5,326.9,1.5,2.8,332.7,0.00,14.7,22.6,"05:48:24",1
"20/09/20","06:00",0.0,18.9,76.0,1009.7,330.1,1.2,2.0,351.5,0.00,14.6,22.5,"05:52:16",1
"20/09/20","06:10",0.0,18.9,76.4,1009.7,321.6,0.7,1.6,317.2,0.00,14.7,22.2,"06:05:52",1
"20/09/20","06:20",0.0,18.7,77.5,1009.7,326.8,0.8,1.8,321.9,0.00,14.7,22.5,"06:10:02",1
"20/09/20","06:30",0.0,18.4,78.4,1010.0,272.1,0.5,1.3,311.9,0.00,14.6,22.3,"06:20:08",1
"20/09/20","06:40",0.0,18.4,79.4,1010.2,286.7,1.0,1.3,303.4,0.00,14.8,22.4,"06:30:48",1
"20/09/20","06:50",0.0,18.4,80.3,1010.0,298.7,1.0,1.9,305.7,0.00,15.0,22.4,"06:44:08",1
"20/09/20","07:00",0.0,18.3,80.8,1010.2,275.9,0.8,1.2,274.1,0.00,15.0,22.3,"06:56:24",1
"20/09/20","07:10",0.0,18.5,81.3,1010.2,303.1,1.1,2.0,332.3,0.00,15.3,22.5,"07:05:12",1
"20/09/20","07:20",0.0,18.6,81.6,1010.0,291.0,1.0,2.0,315.5,0.01,15.4,22.3,"07:17:12",1
"20/09/20","07:30",0.0,18.7,81.7,1009.7,261.1,0.6,1.9,314.3,0.02,15.5,22.6,"07:20:24",1
"20/09/20","07:40",0.0,18.8,81.7,1010.0,299.8,1.1,2.2,334.4,0.03,15.6,22.6,"07:39:28",1
"20/09/20","07:50",0.0,19.0,81.5,1010.4,308.2,1.2,2.9,340.2,0.02,15.8,22.6,"07:41:52",1
"20/09/20","08:00",0.0,19.2,81.2,1010.4,279.4,0.7,1.1,276.7,0.03,15.9,22.4,"07:50:08",1
"20/09/20","08:10",0.0,19.3,81.1,1010.4,290.5,1.0,1.7,316.2,0.05,16.0,22.5,"08:04:24",1
"20/09/20","08:20",0.0,19.6,80.7,1010.7,304.4,1.2,1.9,282.7,0.08,16.2,22.5,"08:10:32",1
"20/09/20","08:30",0.0,19.9,79.9,1010.4,285.7,1.0,1.6,313.3,0.06,16.4,22.6,"08:20:32",1
"20/09/20","08:40",0.0,20.1,79.3,1010.4,290.5,1.1,1.8,331.3,0.08,16.4,22.6,"08:38:16",1
"20/09/20","08:50",0.0,20.3,78.2,1010.4,314.1,1.1,2.0,333.8,0.09,16.4,22.7,"08:48:48",1
"20/09/20","09:00",0.0,20.8,77.2,1010.7,296.9,0.8,1.4,336.5,0.11,16.7,22.7,"08:52:24",1
"20/09/20","09:10",0.0,21.3,75.9,1010.9,271.2,0.6,1.6,296.1,0.14,16.9,22.9,"09:02:16",1
"20/09/20","09:20",0.0,21.6,73.6,1010.7,181.3,0.3,1.1,237.9,0.16,16.7,22.9,"09:12:32",1
"20/09/20","09:30",0.0,22.5,71.6,1010.4,132.8,0.2,0.9,116.5,0.20,17.2,23.0,"09:24:00",1
"20/09/20","09:40",0.0,22.7,68.7,1010.2,228.8,0.8,2.4,231.2,0.22,16.7,23.1,"09:35:04",1
"20/09/20","09:50",0.0,23.3,66.4,1010.0,176.7,0.5,1.8,113.6,0.26,16.7,23.2,"09:48:16",1
"20/09/20","10:00",0.0,23.9,64.4,1009.5,158.0,1.1,2.1,113.5,0.41,16.8,23.4,"09:56:48",1
"20/09/20","10:10",0.0,24.7,61.2,1009.7,199.7,1.1,2.6,197.9,0.50,16.8,23.6,"10:04:16",1
"20/09/20","10:20",0.0,24.8,61.7,1009.5,150.3,1.2,3.6,162.5,0.42,17.0,24.1,"10:12:40",1
"20/09/20","10:30",0.0,25.1,60.2,1009.3,177.2,1.5,3.2,140.8,0.46,16.9,24.1,"10:25:36",1
"20/09/20","10:40",0.0,25.3,57.7,1008.3,141.9,1.3,2.2,141.6,0.46,16.4,24.3,"10:31:36",1
"20/09/20","10:50",0.0,25.5,56.7,1008.3,158.2,1.0,2.0,210.2,0.35,16.3,24.5,"10:42:40",1
"20/09/20","11:00",0.0,25.2,55.2,1008.6,163.8,1.6,3.4,219.7,0.41,15.6,24.8,"10:56:32",1
"20/09/20","11:10",0.0,25.3,55.7,1008.3,157.0,0.7,1.8,201.1,0.27,15.9,25.0,"11:09:28",1
"20/09/20","11:20",0.0,24.9,56.3,1008.3,172.1,1.5,3.2,84.2,0.30,15.6,25.0,"11:12:40",1
"20/09/20","11:30",0.0,25.3,57.1,1007.6,171.4,1.7,4.7,201.2,0.32,16.2,25.0,"11:20:16",1
"20/09/20","11:40",0.0,25.5,57.0,1007.6,161.0,1.3,2.1,96.6,0.35,16.4,25.2,"11:34:00",1
"20/09/20","11:50",0.0,25.5,55.8,1007.4,170.1,1.2,3.3,199.0,0.31,16.1,25.4,"11:42:32",1
"20/09/20","12:00",0.0,25.7,56.9,1007.6,147.7,1.1,2.7,175.2,0.28,16.6,25.4,"11:58:16",1
"20/09/20","12:10",0.0,25.7,54.9,1007.4,167.0,1.2,4.1,209.0,0.33,16.0,25.4,"12:05:04",1
"20/09/20","12:20",0.0,25.8,56.0,1007.1,195.3,1.6,3.3,216.2,0.33,16.4,25.4,"12:14:48",1
"20/09/20","12:30",0.0,26.3,54.6,1007.1,192.8,1.2,2.9,129.3,0.42,16.5,25.8,"12:28:48",1
"20/09/20","12:40",0.0,26.8,51.6,1007.6,143.5,1.1,2.4,189.4,0.47,16.0,25.8,"12:32:24",1
"20/09/20","12:50",0.0,27.1,51.5,1007.4,131.8,1.3,2.9,149.2,0.53,16.3,25.9,"12:42:48",1
"20/09/20","13:00",0.0,27.1,49.6,1007.1,268.3,1.2,2.9,241.5,0.48,15.7,26.2,"12:51:28",1
"20/09/20","13:10",0.0,26.8,50.4,1007.1,192.3,1.7,4.4,228.4,0.44,15.7,26.2,"13:03:44",1
"20/09/20","13:20",0.0,27.4,50.1,1007.1,205.4,1.1,2.8,194.2,0.43,16.1,26.6,"13:15:28",1
"20/09/20","13:30",0.0,26.7,51.7,1007.1,159.3,1.2,2.7,114.9,0.27,16.0,26.5,"13:20:56",1
"20/09/20","13:40",0.0,26.8,50.4,1006.9,278.3,0.7,2.0,142.1,0.27,15.7,26.6,"13:32:24",1
"20/09/20","13:50",0.0,26.6,50.8,1006.7,65.6,1.2,3.3,94.9,0.21,15.6,26.5,"13:47:52",1
"20/09/20","14:00",0.0,26.4,53.4,1006.4,153.8,0.8,2.0,103.6,0.18,16.2,26.5,"13:50:16",1
"20/09/20","14:10",0.0,26.0,52.0,1006.0,127.3,1.2,2.7,111.8,0.16,15.4,26.5,"14:00:40",1
"20/09/20","14:20",0.0,26.3,52.3,1006.0,192.7,1.0,2.6,227.3,0.17,15.8,26.6,"14:10:16",1
"20/09/20","14:30",0.0,26.1,53.4,1005.7,210.0,1.6,3.6,229.0,0.15,15.9,26.6,"14:25:52",1
"20/09/20","14:40",0.0,25.9,52.1,1005.5,221.6,1.6,3.3,228.7,0.13,15.4,26.1,"14:37:36",1
"20/09/20","14:50",0.0,25.9,52.0,1005.7,218.4,1.8,3.2,216.4,0.16,15.3,26.3,"14:44:00",1
"20/09/20","15:00",0.0,26.4,51.5,1006.0,200.5,1.7,3.3,229.9,0.22,15.6,26.2,"14:53:52",1
"20/09/20","15:10",0.0,25.9,50.6,1006.4,218.1,2.1,4.2,230.0,0.13,14.9,26.4,"15:09:04",1
"20/09/20","15:20",0.0,25.7,51.2,1006.0,221.1,1.3,3.6,237.7,0.11,14.9,26.2,"15:12:40",1
"20/09/20","15:30",0.0,25.7,51.9,1006.4,205.8,0.7,2.0,225.7,0.10,15.1,26.2,"15:23:52",1
"20/09/20","15:40",0.0,25.7,51.8,1006.0,230.7,1.0,2.4,222.9,0.09,15.1,25.9,"15:35:36",1
"20/09/20","15:50",0.0,25.7,53.4,1006.4,252.1,0.5,1.6,232.8,0.08,15.6,26.1,"15:40:48",1
"20/09/20","16:00",0.0,25.6,54.8,1006.4,304.8,0.8,1.4,335.9,0.07,15.9,26.1,"15:55:44",1
"20/09/20","16:10",0.0,25.3,54.0,1006.9,259.3,1.0,2.4,235.4,0.05,15.4,25.9,"16:06:48",1
"20/09/20","16:20",0.0,25.2,55.6,1006.9,286.4,0.6,1.1,301.8,0.04,15.7,26.0,"16:10:32",1
"20/09/20","16:30",0.0,25.0,56.6,1006.7,306.4,0.3,1.2,317.6,0.04,15.8,25.8,"16:27:52",1
"20/09/20","16:40",0.0,24.8,63.9,1006.7,346.5,1.1,2.0,340.6,0.02,17.5,25.7,"16:34:56",1
"20/09/20","16:50",0.0,24.2,66.1,1006.7,298.1,0.7,1.4,228.1,0.01,17.5,25.7,"16:46:40",1
"20/09/20","17:00",0.0,23.9,67.8,1007.1,317.8,1.0,2.0,341.4,0.00,17.6,25.5,"16:50:08",1
"20/09/20","17:10",0.0,23.5,68.8,1007.4,287.1,0.7,1.3,337.5,0.00,17.5,25.6,"17:00:08",1
"20/09/20","17:20",0.0,23.2,69.9,1007.4,313.5,1.0,2.0,336.7,0.00,17.4,25.5,"17:12:08",1
"20/09/20","17:30",0.0,22.9,71.2,1007.6,305.5,0.8,2.1,333.9,0.00,17.5,25.4,"17:25:52",1
"20/09/20","17:40",0.0,22.6,72.6,1007.6,308.4,1.2,2.2,339.5,0.00,17.5,25.3,"17:38:32",1
"20/09/20","17:50",0.0,22.3,73.6,1007.6,324.8,1.6,2.6,330.9,0.00,17.4,25.3,"17:43:28",1
"20/09/20","18:00",0.0,22.2,74.1,1007.8,296.9,1.1,2.5,327.4,0.00,17.4,25.0,"17:51:20",1
"20/09/20","18:10",0.0,21.9,75.0,1007.6,322.4,1.5,2.8,344.8,0.00,17.3,25.0,"18:04:24",1
"20/09/20","18:20",0.0,21.7,75.5,1008.1,280.0,1.2,2.5,325.7,0.00,17.2,25.0,"18:11:28",1
"20/09/20","18:30",0.0,21.5,75.5,1007.8,290.9,1.1,2.0,339.8,0.00,17.0,25.0,"18:29:28",1
"20/09/20","18:40",0.0,21.5,75.8,1007.8,306.8,1.6,3.9,332.3,0.00,17.1,24.7,"18:35:36",1
"20/09/20","18:50",0.0,21.6,75.4,1008.3,304.0,1.6,2.9,317.3,0.00,17.1,24.7,"18:43:36",1
"20/09/20","19:00",0.0,21.4,75.5,1008.1,291.0,1.5,2.5,313.1,0.00,16.9,24.5,"18:56:40",1
"20/09/20","19:10",0.0,21.2,75.6,1008.3,299.5,1.5,2.8,299.2,0.00,16.8,24.3,"19:01:44",1
"20/09/20","19:20",0.0,21.1,75.7,1008.6,285.7,1.1,2.0,333.3,0.00,16.7,24.5,"19:14:56",1
"20/09/20","19:30",0.0,20.9,76.1,1008.6,291.6,1.1,2.1,306.4,0.00,16.6,24.3,"19:28:40",1
"20/09/20","19:40",0.0,21.0,76.6,1008.6,327.4,2.0,3.2,337.8,0.00,16.8,24.1,"19:37:04",1
"20/09/20","19:50",0.0,20.9,76.4,1009.0,294.6,1.1,2.2,308.2,0.00,16.6,24.2,"19:48:16",1
"20/09/20","20:00",0.0,20.9,76.3,1009.0,288.0,1.0,1.9,327.7,0.00,16.6,24.1,"19:58:16",1
"20/09/20","20:10",0.0,20.9,76.2,1009.0,320.7,1.1,2.4,335.2,0.00,16.6,24.0,"20:04:08",1
"20/09/20","20:20",0.0,21.2,76.2,1009.3,333.9,1.2,2.0,331.1,0.00,16.9,24.2,"20:10:32",1
"20/09/20","20:30",0.0,21.2,76.6,1009.3,337.8,1.0,1.7,352.6,0.00,17.0,23.9,"20:20:48",1
"20/09/20","20:40",0.0,21.2,76.9,1009.3,318.0,1.7,3.2,339.2,0.00,17.0,23.7,"20:33:28",1
"20/09/20","20:50",0.0,21.4,76.5,1009.0,305.9,1.5,2.6,320.5,0.00,17.1,23.9,"20:45:20",1
"20/09/20","21:00",0.0,21.3,76.6,1009.3,309.0,1.3,2.1,311.2,0.00,17.1,24.0,"20:52:24",1
"20/09/20","21:10",0.0,21.4,76.4,1009.3,330.0,2.2,4.1,330.7,0.00,17.1,23.7,"21:08:24",1
"20/09/20","21:20",0.0,21.6,75.7,1009.5,326.0,2.6,4.4,332.8,0.00,17.2,23.5,"21:12:48",1
"20/09/20","21:30",0.0,21.6,75.6,1009.3,331.8,2.7,3.9,344.6,0.00,17.1,23.6,"21:21:44",1
"20/09/20","21:40",0.0,21.5,75.7,1009.3,330.8,3.1,4.5,337.2,0.00,17.1,23.6,"21:30:48",1
"20/09/20","21:50",0.0,21.4,76.0,1008.8,334.1,2.5,3.7,340.8,0.00,17.0,23.7,"21:45:52",1
"20/09/20","22:00",0.0,21.3,76.3,1009.0,332.3,2.2,3.2,343.7,0.00,17.0,23.6,"21:52:08",1
"20/09/20","22:10",0.0,21.2,76.4,1009.3,332.2,2.3,3.6,339.6,0.00,16.9,23.5,"22:05:12",1
"20/09/20","22:20",0.0,21.3,76.2,1009.0,329.9,2.5,3.9,339.2,0.00,17.0,23.4,"22:15:12",1
"20/09/20","22:30",0.0,21.3,76.2,1009.0,332.7,2.0,3.3,340.6,0.00,17.0,23.3,"22:22:24",1
"20/09/20","22:40",0.0,21.1,76.7,1009.0,327.3,2.0,3.1,337.4,0.00,16.9,23.3,"22:33:44",1
"20/09/20","22:50",0.0,21.3,76.9,1009.0,319.4,2.6,5.0,338.6,0.00,17.1,23.2,"22:42:56",1
"20/09/20","23:00",0.0,21.3,76.8,1009.3,323.6,2.3,4.5,333.3,0.00,17.1,23.3,"22:59:12",1
"20/09/20","23:10",0.0,21.2,76.7,1008.8,319.7,2.0,3.6,337.9,0.00,17.0,23.3,"23:00:16",1
"20/09/20","23:20",0.0,21.1,76.7,1009.0,322.2,1.8,3.6,318.2,0.00,16.9,23.0,"23:10:56",1
"20/09/20","23:30",0.0,21.1,76.8,1009.5,321.7,1.8,3.9,339.4,0.00,16.9,23.2,"23:25:04",1
"20/09/20","23:40",0.0,21.0,76.9,1009.3,314.4,1.8,3.6,314.7,0.00,16.8,23.1,"23:38:56",1
"20/09/20","23:50",0.0,20.9,77.1,1009.0,315.5,1.3,2.2,318.2,0.00,16.8,23.1,"23:47:28",1
"20/09/20","24:00",0.0,20.8,77.4,1009.3,307.2,1.2,2.4,328.7,0.00,16.7,23.0,"23:52:00",1
